Location: Skalnate Pleso
(49.1889°N, 20.2450°E)
Time: 20:02:12
(UTC+02:00)

Cosmos 1605 Rocket - Pass Details

Date: 22 February 2020
Orbit: 944 x 1007 km, 82.9° (Epoch: 04 April)

Event Time Altitude Azimuth Distance (km) Brightness Sun altitude
Rises 03:39:43 0° 349° (N) 3,691 7.1 -29.3°
Reaches altitude 10° 03:42:16 10° 349° (N) 2,729 6.4 -28.9°
Maximum altitude 03:48:31 83° 264° (W) 975 3.8 -27.9°
Enters shadow 03:50:26 47° 181° (S) 1,249 4.4 -27.6°
Exits shadow 03:54:45 - 176° (S) 2,719 6.2 -26.9°
Sets 03:57:05 0° 176° (S) 3,607 6.9 -26.6°
